Flag for U.S.A. Weather past 2 weeks in Augusta, Maine, U.S.A.

Now
67 °F

Overcast.


Feels Like: 67 °F
Forecast: 63 / 74 °F
Wind: 10 mph from Northwest

Location: Augusta State Airport

Current Time: Jul 24, 2014 at 4:48:11 AM

Latest Report: Jul 24, 2014 at 3:53 AM


Visibility: 10 mi

Pressure: 29.76 "Hg

Humidity: 93%

Dew point: 65 °F

Location of AugustaLocation

Historic Weather in Augusta — Graph

°F

Augusta temperature yesterday

Maximum temperature yesterday: 86 °F (at 11:53 AM)
Minimum temperature yesterday: 65 °F (at 1:53 AM)
Average temperature yesterday: 75 °F

Past Weeks' High & Low Weather Summary

 TemperatureHumidityPressure
High86 °F (Jul 23, 11:53 AM)100% (Jul 14, 4:53 AM)30.29 "Hg (Jul 14, 4:53 AM)
Low55 °F (Jul 11, 3:53 AM)37% (Jul 10, 12:53 PM)29.61 "Hg (Jul 9, 3:53 AM)
Average70 °F75%30.01 "Hg
* Reported Jul 9 3:53 AM — Jul 24 3:53 AM, Augusta, Weather by CustomWeather, © 2014

Note: Actual official high and low records may vary slightly from our data, if they occured in-between our weather recording intervals... More about our weather records

Advertising

Augusta weather history for previous 24 hours

 ConditionsComfort  
Time TempWeatherWind HumidityBarometerVisibility
3:53 AM
Jul 24
67 °FOvercast.10 mph93%29.76 "Hg10 mi
3:04 AM69 °FMostly cloudy.10 mph90%29.76 "Hg10 mi
1:53 AM69 °FPartly cloudy.3 mph96%29.73 "Hg10 mi
12:53 AM70 °FLight rain. Overcast.3 mph93%29.75 "Hg8 mi
11:53 PM
Jul 23
70 °FLight rain. Partly cloudy.3 mph97%29.78 "Hg7 mi
10:53 PM70 °FLight rain. Fog.5 mph97%29.78 "Hg6 mi
9:53 PM70 °FLight rain. Clear.5 mph93%29.76 "Hg8 mi
8:53 PM70 °FRain. Fog.5 mph97%29.77 "Hg4 mi
7:53 PM71 °FHeavy rain. Fog.3 mph93%29.76 "Hg2 mi
7:02 PM73 °FThunderstorms. Mostly cloudy.5 mph81%29.76 "Hg8 mi
6:53 PM72 °FThundershowers. Fog.3 mph87%29.76 "Hg5 mi
5:53 PM82 °FScattered clouds.No wind70%29.72 "Hg10 mi
4:53 PM85 °FSunny.9 mph68%29.70 "Hg9 mi
3:53 PM84 °FPassing clouds.9 mph67%29.71 "Hg10 mi
2:53 PM85 °FPassing clouds.9 mph65%29.72 "Hg10 mi
1:53 PM86 °FMostly cloudy.9 mph63%29.75 "Hg10 mi
12:53 PM85 °FScattered clouds.7 mph65%29.76 "Hg10 mi
11:53 AM86 °FSunny.6 mph59%29.78 "Hg10 mi
10:53 AM82 °FSunny.7 mph67%29.80 "Hg10 mi
9:53 AM81 °FSunny.9 mph69%29.82 "Hg10 mi
8:53 AM76 °FSunny.5 mph80%29.84 "Hg10 mi
5:53 AM67 °FFog.3 mph93%29.86 "Hg6 mi
4:53 AM66 °FFog.No wind93%29.87 "Hg5 mi
Weather by CustomWeather, © 2014

See weather overviewHow to use our weather pages